Location: Llanfihangel-Ystrad
(52.1833°N, 4.1667°W)
Time: 16:52:16
(UTC+00:00)

Cosmos 1484 Rocket - Pass Details

Date: 17 February 2020
Orbit: 506 x 559 km, 97.4° (Epoch: 06 April)

Event Time Altitude Azimuth Distance (km) Brightness Sun altitude
Rises 06:43:55 0° 1° (N) 2,707 6.3 -7.6°
Reaches altitude 10° 06:46:33 10° 342° (NNW) 1,820 5.2 -7.2°
Maximum altitude 06:49:11 18° 300° (WNW) 1,406 4.3 -6.8°
Drops below altitude 10° 06:51:50 10° 257° (WSW) 1,830 4.9 -6.4°
Sets 06:54:31 0° 238° (WSW) 2,727 5.9 -6.0°
